This is the latest recevied weather packets stored in our database for station/object DB0DUS-10. If no packets are shown the sender has not sent any weather packets the latest 10 day(s).
| Time | Temp. | Humidity | Pressure | Rain* | Wind** | Luminosity | Snow |
|---|---|---|---|---|---|---|---|
| 1777637593 | 24.44° C | 19% | 1025.2 hPa | 0 mm | - | - | - |
| 1777637292 | 24.44° C | 18% | 1025.1 hPa | 0 mm | - | - | - |
| 1777636094 | 24.44° C | 19% | 1025.4 hPa | 0 mm | - | - | - |
| 1777635492 | 23.33° C | 20% | 1025.4 hPa | 0 mm | - | - | - |
| 1777634592 | 23.89° C | 19% | 1025.6 hPa | 0 mm | - | - | - |
| 1777633692 | 24.44° C | 18% | 1025.7 hPa | 0 mm | - | - | - |
| 1777633093 | 24.44° C | 18% | 1025.9 hPa | 0 mm | - | - | - |
| 1777631892 | 23.89° C | 18% | 1026.2 hPa | 0 mm | - | - | - |
| 1777631593 | 23.89° C | 19% | 1026 hPa | 0 mm | - | - | - |
| 1777630092 | 22.22° C | 20% | 1026.4 hPa | 0 mm | - | - | - |
| 1777628593 | 21.11° C | 21% | 1026.6 hPa | 0 mm | - | - | - |
| 1777628292 | 21.67° C | 20% | 1026.7 hPa | 0 mm | - | - | - |
| 1777627093 | 20.56° C | 22% | 1026.9 hPa | 0 mm | - | - | - |
| 1777626492 | 20.56° C | 23% | 1027 hPa | 0 mm | - | - | - |
| 1777625594 | 20.56° C | 22% | 1027 hPa | 0 mm | - | - | - |
| 1777624692 | 20° C | 22% | 1027.1 hPa | 0 mm | - | - | - |
| 1777624093 | 20° C | 22% | 1027.2 hPa | 0 mm | - | - | - |
| 1777622892 | 19.44° C | 24% | 1027.3 hPa | 0 mm | - | - | - |
| 1777622594 | 19.44° C | 25% | 1027.1 hPa | 0 mm | - | - | - |
| 1777621092 | 17.78° C | 26% | 1027.2 hPa | 0 mm | - | - | - |
| 1777619593 | 17.22° C | 29% | 1027.2 hPa | 0 mm | - | - | - |
| 1777619292 | 17.22° C | 31% | 1027.2 hPa | 0 mm | - | - | - |
| 1777618094 | 16.67° C | 32% | 1027.2 hPa | 0 mm | - | - | - |
| 1777617492 | 16.11° C | 33% | 1027.1 hPa | 0 mm | - | - | - |
| 1777616593 | 16.11° C | 35% | 1027.1 hPa | 0 mm | - | - | - |
* Rain latest hour (hover to see other rain measurements)
** Current wind speed in m/s (hover to see current wind gust speed)